This demonstration page uses our WeatherBlox Daily Observations layout. Learn more.

Left ArrowRight Arrow

44.8408, -93.29828

Hourly Observations for February 18, 2019

Temp ( °F °C ) Dew Point ( °F °C ) Humidity (%) Winds ( mph kmh ) Pressure ( in mb ) Visibility ( mi km ) Precip ( " mm )
12:53 am 00:53 Mostly Clear 13 -10.6 6 -14.4 74 74 N 8 13 30.28 1025 10 16 0.00 0.00
1:53 am 01:53 Clear 11 -11.7 5 -15 77 77 N 8 13 30.30 1026 10 16 0.00 0.00
2:53 am 02:53 Clear 10 -12.2 5 -15 80 80 N 9 15 30.32 1027 10 16 0.00 0.00
3:53 am 03:53 Clear 9 -12.8 5 -15 84 84 N 8 13 30.34 1027 10 16 0.00 0.00
4:53 am 04:53 Mostly Clear 8 -13.3 5 -15 87 87 N 8 13 30.36 1028 10 16 0.00 0.00
5:53 am 05:53 Mostly Clear 8 -13.3 4 -15.6 83 83 N 10 17 30.38 1029 10 16 0.00 0.00
6:53 am 06:53 Clear 7 -13.9 4 -15.6 87 87 VRB 7 11 30.41 1030 10 16 0.00 0.00
7:53 am 07:53 Sunny 8 -13.3 5 -15 87 87 N 8 13 30.45 1031 10 16 0.00 0.00
8:53 am 08:53 Sunny 11 -11.7 6 -14.4 81 81 N 6 9 30.48 1032 10 16 0.00 0.00
9:53 am 09:53 Mostly Sunny 14 -10 6 -14.4 71 71 NNE 5 7 30.49 1033 10 16 0.00 0.00
10:53 am 10:53 Mostly Sunny 17 -8.3 7 -13.9 64 64 NNE 3 6 30.52 1033 10 16 0.00 0.00
11:53 am 11:53 Mostly Sunny 19 -7.2 8 -13.3 62 62 NNW 6 9 30.53 1034 10 16 0.00 0.00
12:53 pm 12:53 Partly Cloudy 20 -6.7 9 -12.8 62 62 N 6 9 30.53 1034 10 16 0.00 0.00
1:53 pm 13:53 Partly Cloudy 20 -6.7 9 -12.8 62 62 N 7 11 30.52 1033 10 16 0.00 0.00
2:53 pm 14:53 Partly Cloudy 21 -6.1 10 -12.2 62 62 NW 9 15 30.53 1034 10 16 0.00 0.00
3:53 pm 15:53 Partly Cloudy 21 -6.1 8 -13.3 57 57 NNW 7 11 30.53 1034 10 16 0.00 0.00
4:53 pm 16:53 Partly Cloudy 20 -6.7 8 -13.3 60 60 NNW 6 9 30.53 1034 10 16 0.00 0.00
5:53 pm 17:53 Mostly Cloudy 17 -8.3 8 -13.3 68 68 WNW 8 13 30.54 1034 10 16 0.00 0.00
6:53 pm 18:53 Mostly Cloudy 16 -8.9 8 -13.3 71 71 WNW 10 17 30.56 1035 10 16 0.00 0.00
7:53 pm 19:53 Mostly Cloudy 14 -10 6 -14.4 71 71 W 7 11 30.58 1035 10 16 0.00 0.00
8:53 pm 20:53 Partly Cloudy 13 -10.6 6 -14.4 74 74 VRB 6 9 30.58 1036 10 16 0.00 0.00
9:53 pm 21:53 Clear 10 -12.2 5 -15 80 80 WSW 6 9 30.61 1037 10 16 0.00 0.00
10:53 pm 22:53 Clear 7 -13.9 3 -16.1 84 84 WSW 6 9 30.61 1037 9 14 0.00 0.00
11:53 pm 23:53 Clear 6 -14.4 2 -16.7 83 83 WSW 3 6 30.60 1036 8 13 0.00 0.00

Powered by AerisWeather